Year,Month,Day,Hour,Minute,Value (Times are PST for temperature in C)
2015,06,07,00,00,12.00
2015,06,07,00,01,12.00
2015,06,07,00,02,12.10
2015,06,07,00,03,12.10
2015,06,07,00,04,12.10
2015,06,07,00,05,12.00
2015,06,07,00,06,12.00
2015,06,07,00,07,12.00
2015,06,07,00,08,12.00
2015,06,07,00,09,12.00
2015,06,07,00,10,12.00
2015,06,07,00,11,11.90
2015,06,07,00,12,11.90
2015,06,07,00,13,11.90
2015,06,07,00,14,11.90
2015,06,07,00,15,11.80
2015,06,07,00,16,11.80
2015,06,07,00,17,11.80
2015,06,07,00,18,11.80
2015,06,07,00,19,11.80
2015,06,07,00,20,11.70
2015,06,07,00,21,11.70
2015,06,07,00,22,11.70
2015,06,07,00,23,11.70
2015,06,07,00,24,11.70
2015,06,07,00,25,11.60
2015,06,07,00,26,11.60
2015,06,07,00,27,11.60
2015,06,07,00,28,11.60
2015,06,07,00,29,11.60
2015,06,07,00,30,11.60
2015,06,07,00,31,11.60
2015,06,07,00,32,11.60
2015,06,07,00,33,11.60
2015,06,07,00,34,11.60
2015,06,07,00,35,11.60
2015,06,07,00,36,11.60
2015,06,07,00,37,11.60
2015,06,07,00,38,11.60
2015,06,07,00,39,11.60
2015,06,07,00,40,11.60
2015,06,07,00,41,11.60
2015,06,07,00,42,11.60
2015,06,07,00,43,11.60
2015,06,07,00,44,11.60
2015,06,07,00,45,11.60
2015,06,07,00,46,11.60
2015,06,07,00,47,11.50
2015,06,07,00,48,11.50
2015,06,07,00,49,11.50
2015,06,07,00,50,11.40
2015,06,07,00,51,11.40
2015,06,07,00,52,11.40
2015,06,07,00,53,11.40
2015,06,07,00,54,11.40
2015,06,07,00,55,11.40
2015,06,07,00,56,11.40
2015,06,07,00,57,11.40
2015,06,07,00,58,11.40
2015,06,07,00,59,11.40
2015,06,07,01,00,11.40
2015,06,07,01,01,11.30
2015,06,07,01,02,11.30
2015,06,07,01,03,11.30
2015,06,07,01,04,11.30
2015,06,07,01,05,11.30
2015,06,07,01,06,11.30
2015,06,07,01,07,11.20
2015,06,07,01,08,11.20
2015,06,07,01,09,11.20
2015,06,07,01,10,11.20
2015,06,07,01,11,11.20
2015,06,07,01,12,11.20
2015,06,07,01,13,11.20
2015,06,07,01,14,11.20
2015,06,07,01,15,11.20
2015,06,07,01,16,11.20
2015,06,07,01,17,11.20
2015,06,07,01,18,11.20
2015,06,07,01,19,11.20
2015,06,07,01,20,11.20
2015,06,07,01,21,11.10
2015,06,07,01,22,11.10
2015,06,07,01,23,11.10
2015,06,07,01,24,11.10
2015,06,07,01,25,11.00
2015,06,07,01,26,11.00
2015,06,07,01,27,11.00
2015,06,07,01,28,10.90
2015,06,07,01,29,10.90
2015,06,07,01,30,10.90
2015,06,07,01,31,10.90
2015,06,07,01,32,10.90
2015,06,07,01,33,10.90
2015,06,07,01,34,10.90
2015,06,07,01,35,10.90
2015,06,07,01,36,10.90
2015,06,07,01,37,10.80
2015,06,07,01,38,10.80
2015,06,07,01,39,10.80
2015,06,07,01,40,10.80
2015,06,07,01,41,10.80
2015,06,07,01,42,10.80
2015,06,07,01,43,10.80
2015,06,07,01,44,10.80
2015,06,07,01,45,10.80
2015,06,07,01,46,10.80
2015,06,07,01,47,10.80
2015,06,07,01,48,10.80
2015,06,07,01,49,10.80
2015,06,07,01,50,10.80
2015,06,07,01,51,10.90
2015,06,07,01,52,10.80
2015,06,07,01,53,10.90
2015,06,07,01,54,10.90
2015,06,07,01,55,10.90
2015,06,07,01,56,10.90
2015,06,07,01,57,10.90
2015,06,07,01,58,10.90
2015,06,07,01,59,10.90
2015,06,07,02,00,10.90
2015,06,07,02,01,10.80
2015,06,07,02,02,10.90
2015,06,07,02,03,10.90
2015,06,07,02,04,10.90
2015,06,07,02,05,10.90
2015,06,07,02,06,10.90
2015,06,07,02,07,10.90
2015,06,07,02,08,10.90
2015,06,07,02,09,10.90
2015,06,07,02,10,10.90
2015,06,07,02,11,10.90
2015,06,07,02,12,10.90
2015,06,07,02,13,10.90
2015,06,07,02,14,10.90
2015,06,07,02,15,10.80
2015,06,07,02,16,10.80
2015,06,07,02,17,10.80
2015,06,07,02,18,10.80
2015,06,07,02,19,10.80
2015,06,07,02,20,10.80
2015,06,07,02,21,10.80
2015,06,07,02,22,10.80
2015,06,07,02,23,10.80
2015,06,07,02,24,10.90
2015,06,07,02,25,10.90
2015,06,07,02,26,10.90
2015,06,07,02,27,10.90
2015,06,07,02,28,10.90
2015,06,07,02,29,10.90
2015,06,07,02,30,10.90
2015,06,07,02,31,10.90
2015,06,07,02,32,10.90
2015,06,07,02,33,10.80
2015,06,07,02,34,10.80
2015,06,07,02,35,10.80
2015,06,07,02,36,10.80
2015,06,07,02,37,10.80
2015,06,07,02,38,10.70
2015,06,07,02,39,10.70
2015,06,07,02,40,10.70
2015,06,07,02,41,10.70
2015,06,07,02,42,10.70
2015,06,07,02,43,10.70
2015,06,07,02,44,10.70
2015,06,07,02,45,10.70
2015,06,07,02,46,10.70
2015,06,07,02,47,10.70
2015,06,07,02,48,10.70
2015,06,07,02,49,10.80
2015,06,07,02,50,10.80
2015,06,07,02,51,10.80
2015,06,07,02,52,10.80
2015,06,07,02,53,10.80
2015,06,07,02,54,10.80
2015,06,07,02,55,10.80
2015,06,07,02,56,10.80
2015,06,07,02,57,10.80
2015,06,07,02,58,10.80
2015,06,07,02,59,10.90
2015,06,07,03,00,10.90
2015,06,07,03,01,10.90
2015,06,07,03,02,10.90
2015,06,07,03,03,10.90
2015,06,07,03,04,10.90
2015,06,07,03,05,10.80
2015,06,07,03,06,10.80
2015,06,07,03,07,10.80
2015,06,07,03,08,10.80
2015,06,07,03,09,10.80
2015,06,07,03,10,10.80
2015,06,07,03,11,10.80
2015,06,07,03,12,10.80
2015,06,07,03,13,10.80
2015,06,07,03,14,10.80
2015,06,07,03,15,10.80
2015,06,07,03,16,10.80
2015,06,07,03,17,10.80
2015,06,07,03,18,10.80
2015,06,07,03,19,10.70
2015,06,07,03,20,10.70
2015,06,07,03,21,10.70
2015,06,07,03,22,10.70
2015,06,07,03,23,10.70
2015,06,07,03,24,10.70
2015,06,07,03,25,10.70
2015,06,07,03,26,10.60
2015,06,07,03,27,10.60
2015,06,07,03,28,10.60
2015,06,07,03,29,10.60
2015,06,07,03,30,10.60
2015,06,07,03,31,10.60
2015,06,07,03,32,10.60
2015,06,07,03,33,10.60
2015,06,07,03,34,10.60
2015,06,07,03,35,10.60
2015,06,07,03,36,10.60
2015,06,07,03,37,10.60
2015,06,07,03,38,10.60
2015,06,07,03,39,10.60
2015,06,07,03,40,10.60
2015,06,07,03,41,10.60
2015,06,07,03,42,10.60
2015,06,07,03,43,10.60
2015,06,07,03,44,10.60
2015,06,07,03,45,10.60
2015,06,07,03,46,10.60
2015,06,07,03,47,10.60
2015,06,07,03,48,10.60
2015,06,07,03,49,10.60
2015,06,07,03,50,10.60
2015,06,07,03,51,10.60
2015,06,07,03,52,10.60
2015,06,07,03,53,10.60
2015,06,07,03,54,10.60
2015,06,07,03,55,10.60
2015,06,07,03,56,10.60
2015,06,07,03,57,10.60
2015,06,07,03,58,10.60
2015,06,07,03,59,10.60
2015,06,07,04,00,10.60
2015,06,07,04,01,10.60
2015,06,07,04,02,10.60
2015,06,07,04,03,10.60
2015,06,07,04,04,10.60
2015,06,07,04,05,10.50
2015,06,07,04,06,10.50
2015,06,07,04,07,10.50
2015,06,07,05,02,10.20
2015,06,07,05,03,10.10
2015,06,07,05,04,10.10
2015,06,07,05,05,10.10
2015,06,07,05,06,10.10
2015,06,07,05,07,10.10
2015,06,07,05,08,10.10
2015,06,07,05,09,10.10
2015,06,07,05,10,10.10
2015,06,07,05,11,10.10
2015,06,07,05,12,10.10
2015,06,07,05,13,10.10
2015,06,07,05,14,10.10
2015,06,07,05,15,10.10
2015,06,07,05,16,10.10
2015,06,07,05,17,10.10
2015,06,07,05,18,10.10
2015,06,07,05,19,10.20
2015,06,07,05,20,10.20
2015,06,07,05,21,10.20
2015,06,07,05,22,10.30
2015,06,07,05,23,10.30
2015,06,07,05,24,10.30
2015,06,07,05,25,10.30
2015,06,07,05,26,10.30
2015,06,07,05,27,10.30
2015,06,07,05,28,10.30
2015,06,07,05,29,10.20
2015,06,07,05,30,10.20
2015,06,07,05,31,10.20
2015,06,07,05,32,10.20
2015,06,07,05,33,10.20
2015,06,07,05,34,10.20
2015,06,07,05,35,10.10
2015,06,07,05,36,10.10
2015,06,07,05,37,10.10
2015,06,07,05,38,10.10
2015,06,07,05,39,10.00
2015,06,07,05,40,10.00
2015,06,07,05,41,10.00
2015,06,07,05,42,9.90
2015,06,07,05,43,9.90
2015,06,07,05,44,9.90
2015,06,07,05,45,9.90
2015,06,07,05,46,9.90
2015,06,07,05,47,9.90
2015,06,07,05,48,9.90
2015,06,07,05,49,9.90
2015,06,07,05,50,9.90
2015,06,07,05,51,9.90
2015,06,07,05,52,9.90
2015,06,07,05,53,9.90
2015,06,07,05,54,9.90
2015,06,07,05,55,9.90
2015,06,07,05,56,9.90
2015,06,07,05,57,9.90
2015,06,07,05,58,10.00
2015,06,07,05,59,10.00
2015,06,07,06,00,10.00
2015,06,07,06,01,10.00
2015,06,07,06,02,10.10
2015,06,07,06,03,10.10
2015,06,07,06,04,10.10
2015,06,07,06,05,10.20
2015,06,07,06,06,10.20
2015,06,07,06,07,10.20
2015,06,07,06,08,10.20
2015,06,07,06,09,10.20
2015,06,07,06,10,10.20
2015,06,07,06,11,10.20
2015,06,07,06,12,10.20
2015,06,07,06,13,10.20
2015,06,07,06,14,10.30
2015,06,07,06,15,10.30
2015,06,07,06,16,10.40
2015,06,07,06,17,10.40
2015,06,07,06,18,10.50
2015,06,07,06,19,10.60
2015,06,07,06,20,10.70
2015,06,07,06,21,10.80
2015,06,07,06,22,10.90
2015,06,07,06,23,11.00
2015,06,07,06,24,11.10
2015,06,07,06,25,11.20
2015,06,07,06,26,11.30
2015,06,07,06,27,11.40
2015,06,07,06,28,11.50
2015,06,07,06,29,11.60
2015,06,07,06,30,11.60
2015,06,07,06,31,11.70
2015,06,07,06,32,11.80
2015,06,07,06,33,11.90
2015,06,07,06,34,11.90
2015,06,07,06,35,11.90
2015,06,07,06,36,11.90
2015,06,07,06,37,11.90
2015,06,07,06,38,11.90
2015,06,07,06,39,11.90
2015,06,07,06,40,11.90
2015,06,07,06,41,12.00
2015,06,07,06,42,12.10
2015,06,07,06,43,12.10
2015,06,07,06,44,12.20
2015,06,07,06,45,12.20
2015,06,07,06,46,12.30
2015,06,07,06,47,12.40
2015,06,07,06,48,12.40
2015,06,07,06,49,12.40
2015,06,07,06,50,12.40
2015,06,07,06,51,12.50
2015,06,07,06,52,12.50
2015,06,07,06,53,12.50
2015,06,07,06,54,12.60
2015,06,07,06,55,12.60
2015,06,07,06,56,12.60
2015,06,07,06,57,12.70
2015,06,07,06,58,12.70
2015,06,07,06,59,12.80
2015,06,07,07,00,12.80
2015,06,07,07,01,12.90
2015,06,07,07,02,13.00
2015,06,07,07,03,13.00
2015,06,07,07,04,13.10
2015,06,07,07,05,13.10
2015,06,07,07,06,13.20
2015,06,07,07,07,13.20
2015,06,07,07,08,13.30
2015,06,07,07,09,13.30
2015,06,07,07,10,13.40
2015,06,07,07,11,13.50
2015,06,07,07,12,13.50
2015,06,07,07,13,13.60
2015,06,07,07,14,13.60
2015,06,07,07,15,13.60
2015,06,07,07,16,13.60
2015,06,07,07,17,13.60
2015,06,07,07,18,13.70
2015,06,07,07,19,13.70
2015,06,07,07,20,13.80
2015,06,07,07,21,13.80
2015,06,07,07,22,13.90
2015,06,07,07,23,14.00
2015,06,07,07,24,14.00
2015,06,07,07,25,14.10
2015,06,07,07,26,14.10
2015,06,07,07,27,14.10
2015,06,07,07,28,14.10
2015,06,07,07,29,14.10
2015,06,07,07,30,14.10
2015,06,07,07,31,14.10
2015,06,07,07,32,14.10
2015,06,07,07,33,14.10
2015,06,07,07,34,14.20
2015,06,07,07,35,14.20
2015,06,07,07,36,14.20
2015,06,07,07,37,14.10
2015,06,07,07,38,14.10
2015,06,07,07,39,14.10
2015,06,07,07,40,14.10
2015,06,07,07,41,14.10
2015,06,07,07,42,14.10
2015,06,07,07,43,14.20
2015,06,07,07,44,14.20
2015,06,07,07,45,14.30
2015,06,07,07,46,14.30
2015,06,07,07,47,14.30
2015,06,07,07,48,14.30
2015,06,07,07,49,14.30
2015,06,07,07,50,14.30
2015,06,07,07,51,14.20
2015,06,07,07,52,14.20
2015,06,07,07,53,14.20
2015,06,07,07,54,14.20
2015,06,07,07,55,14.20
2015,06,07,07,56,14.20
2015,06,07,07,57,14.10
2015,06,07,07,58,14.10
2015,06,07,07,59,14.10
2015,06,07,08,00,14.00
2015,06,07,08,01,14.00
2015,06,07,08,02,14.00
2015,06,07,08,03,14.00
2015,06,07,08,04,14.00
2015,06,07,08,05,14.10
2015,06,07,08,06,14.10
2015,06,07,08,07,14.10
2015,06,07,08,08,14.10
2015,06,07,08,09,14.20
2015,06,07,08,10,14.30
2015,06,07,08,11,14.30
2015,06,07,08,12,14.40
2015,06,07,08,13,14.40
2015,06,07,08,14,14.50
2015,06,07,08,15,14.50
2015,06,07,08,16,14.60
2015,06,07,08,17,14.60
2015,06,07,08,18,14.60
2015,06,07,08,19,14.60
2015,06,07,08,20,14.70
2015,06,07,08,21,14.70
2015,06,07,08,22,14.80
2015,06,07,08,23,14.80
2015,06,07,08,24,14.80
2015,06,07,08,25,14.80
2015,06,07,08,26,14.80
2015,06,07,08,27,14.80
2015,06,07,08,28,14.80
2015,06,07,08,29,14.80
2015,06,07,08,30,14.70
2015,06,07,08,31,14.70
2015,06,07,08,32,14.70
2015,06,07,08,33,14.70
2015,06,07,08,34,14.80
2015,06,07,08,35,14.80
2015,06,07,08,36,14.90
2015,06,07,08,37,14.90
2015,06,07,08,38,15.00
2015,06,07,08,39,15.10
2015,06,07,08,40,15.20
2015,06,07,08,41,15.20
2015,06,07,08,42,15.20
2015,06,07,08,43,15.30
2015,06,07,08,44,15.30
2015,06,07,08,45,15.30
2015,06,07,08,46,15.40
2015,06,07,08,47,15.50
2015,06,07,08,48,15.60
2015,06,07,08,49,15.60
2015,06,07,08,50,15.60
2015,06,07,08,51,15.60
2015,06,07,08,52,15.70
2015,06,07,08,53,15.70
2015,06,07,08,54,15.70
2015,06,07,08,55,15.70
2015,06,07,08,56,15.80
2015,06,07,08,57,15.70
2015,06,07,08,58,15.70
2015,06,07,08,59,15.70
2015,06,07,09,00,15.80
2015,06,07,09,01,15.80
2015,06,07,09,02,15.80
2015,06,07,09,03,15.80
2015,06,07,09,04,15.80
2015,06,07,09,05,15.80
2015,06,07,09,06,15.90
2015,06,07,09,07,15.90
2015,06,07,09,08,15.90
2015,06,07,09,09,15.90
2015,06,07,09,10,15.90
2015,06,07,09,11,15.90
2015,06,07,09,12,15.90
2015,06,07,09,13,15.90
2015,06,07,09,14,15.80
2015,06,07,09,15,15.80
2015,06,07,09,16,15.80
2015,06,07,09,17,15.80
2015,06,07,09,18,15.80
2015,06,07,09,19,15.80
2015,06,07,09,20,15.70
2015,06,07,09,21,15.70
2015,06,07,09,22,15.60
2015,06,07,09,23,15.60
2015,06,07,09,24,15.50
2015,06,07,09,25,15.50
2015,06,07,09,26,15.60
2015,06,07,09,27,15.60
2015,06,07,09,28,15.60
2015,06,07,09,29,15.70
2015,06,07,09,30,15.70
2015,06,07,09,31,15.70
2015,06,07,09,32,15.60
2015,06,07,09,33,15.60
2015,06,07,09,34,15.60
2015,06,07,09,35,15.60
2015,06,07,09,36,15.60
2015,06,07,09,37,15.60
2015,06,07,09,38,15.60
2015,06,07,09,39,15.70
2015,06,07,09,40,15.70
2015,06,07,09,41,15.80
2015,06,07,09,42,15.80
2015,06,07,09,43,15.90
2015,06,07,09,44,15.90
2015,06,07,09,45,16.00
2015,06,07,09,46,16.10
2015,06,07,09,47,16.10
2015,06,07,09,48,16.10
2015,06,07,09,49,16.20
2015,06,07,09,50,16.20
2015,06,07,09,51,16.30
2015,06,07,09,52,16.30
2015,06,07,09,53,16.30
2015,06,07,09,54,16.20
2015,06,07,09,55,16.10
2015,06,07,09,56,16.00
2015,06,07,09,57,16.00
2015,06,07,09,58,16.00
2015,06,07,09,59,16.10
2015,06,07,10,00,16.20
2015,06,07,10,01,16.20
2015,06,07,10,02,16.20
2015,06,07,10,03,16.20
2015,06,07,10,04,16.30
2015,06,07,10,05,16.30
2015,06,07,10,06,16.30
2015,06,07,10,07,16.40
2015,06,07,10,08,16.50
2015,06,07,10,09,16.60
2015,06,07,10,10,16.50
2015,06,07,10,11,16.50
2015,06,07,10,12,16.50
2015,06,07,10,13,16.50
2015,06,07,10,14,16.40
2015,06,07,10,15,16.40
2015,06,07,10,16,16.50
2015,06,07,10,17,16.50
2015,06,07,10,18,16.60
2015,06,07,10,19,16.60
2015,06,07,10,20,16.70
2015,06,07,10,21,16.70
2015,06,07,10,22,16.80
2015,06,07,10,23,16.90
2015,06,07,10,24,16.80
2015,06,07,10,25,16.80
2015,06,07,10,26,16.70
2015,06,07,10,27,16.50
2015,06,07,10,28,16.40
2015,06,07,10,29,16.30
2015,06,07,10,30,16.30
2015,06,07,10,31,16.30
2015,06,07,10,32,16.30
2015,06,07,10,33,16.30
2015,06,07,10,34,16.30
2015,06,07,10,35,16.30
2015,06,07,10,36,16.30
2015,06,07,10,37,16.20
2015,06,07,10,38,16.20
2015,06,07,10,39,16.20
2015,06,07,10,40,16.20
2015,06,07,10,41,16.20
2015,06,07,10,42,16.30
2015,06,07,10,43,16.30
2015,06,07,10,44,16.30
2015,06,07,10,45,16.20
2015,06,07,10,46,16.20
2015,06,07,10,47,16.20
2015,06,07,10,48,16.30
2015,06,07,10,49,16.30
2015,06,07,10,50,16.40
2015,06,07,10,51,16.40
2015,06,07,10,52,16.50
2015,06,07,10,53,16.40
2015,06,07,10,54,16.40
2015,06,07,10,55,16.40
2015,06,07,10,56,16.40
2015,06,07,10,57,16.40
2015,06,07,10,58,16.50
2015,06,07,10,59,16.60
2015,06,07,11,00,16.70
2015,06,07,11,01,16.80
2015,06,07,11,02,16.90
2015,06,07,11,03,16.90
2015,06,07,11,04,16.90
2015,06,07,11,05,17.00
2015,06,07,11,06,17.10
2015,06,07,11,07,17.20
2015,06,07,11,08,17.20
2015,06,07,11,09,17.20
2015,06,07,11,10,17.20
2015,06,07,11,11,17.10
2015,06,07,11,12,17.10
2015,06,07,11,13,17.10
2015,06,07,11,14,17.10
2015,06,07,11,15,17.00
2015,06,07,11,16,16.90
2015,06,07,11,17,16.80
2015,06,07,11,18,16.70
2015,06,07,11,19,16.60
2015,06,07,11,20,16.50
2015,06,07,11,21,16.40
2015,06,07,11,22,16.30
2015,06,07,11,23,16.30
2015,06,07,11,24,16.30
2015,06,07,11,25,16.30
2015,06,07,11,26,16.40
2015,06,07,11,27,16.40
2015,06,07,11,28,16.40
2015,06,07,11,29,16.40
2015,06,07,11,30,16.40
2015,06,07,11,31,16.50
2015,06,07,11,32,16.60
2015,06,07,11,33,16.70
2015,06,07,11,34,16.70
2015,06,07,11,35,16.80
2015,06,07,11,36,16.90
2015,06,07,11,37,16.90
2015,06,07,11,38,16.90
2015,06,07,11,39,16.90
2015,06,07,11,40,16.90
2015,06,07,11,41,16.90
2015,06,07,11,42,16.90
2015,06,07,11,43,16.90
2015,06,07,11,44,17.00
2015,06,07,11,45,17.20
2015,06,07,11,46,17.30
2015,06,07,11,47,17.40
2015,06,07,11,48,17.40
2015,06,07,11,49,17.40
2015,06,07,11,50,17.50
2015,06,07,11,51,17.60
2015,06,07,11,52,17.60
2015,06,07,11,53,17.70
2015,06,07,11,54,17.80
2015,06,07,11,55,17.80
2015,06,07,11,56,17.80
2015,06,07,11,57,17.80
2015,06,07,11,58,17.80
2015,06,07,11,59,17.80
2015,06,07,12,00,17.80
2015,06,07,12,01,17.80
2015,06,07,12,02,17.80
2015,06,07,12,03,17.80
2015,06,07,12,04,17.80
2015,06,07,12,05,17.80
2015,06,07,12,06,17.90
2015,06,07,12,07,18.00
2015,06,07,12,08,18.00
2015,06,07,12,09,18.00
2015,06,07,12,10,18.00
2015,06,07,12,11,18.00
2015,06,07,12,12,18.10
2015,06,07,12,13,18.20
2015,06,07,12,14,18.20
2015,06,07,12,15,18.30
2015,06,07,12,16,18.40
2015,06,07,12,17,18.40
2015,06,07,12,18,18.40
2015,06,07,12,19,18.30
2015,06,07,12,20,18.30
2015,06,07,12,21,18.30
2015,06,07,12,22,18.20
2015,06,07,12,23,18.20
2015,06,07,12,24,18.20
2015,06,07,12,25,18.30
2015,06,07,12,26,18.30
2015,06,07,12,27,18.30
2015,06,07,12,28,18.40
2015,06,07,12,29,18.50
2015,06,07,12,30,18.70
2015,06,07,12,31,18.80
2015,06,07,12,32,18.80
2015,06,07,12,33,18.80
2015,06,07,12,34,18.80
2015,06,07,12,35,18.80
2015,06,07,12,36,18.70
2015,06,07,12,37,18.60
2015,06,07,12,38,18.60
2015,06,07,12,39,18.60
2015,06,07,12,40,18.60
2015,06,07,12,41,18.60
2015,06,07,12,42,18.70
2015,06,07,12,43,18.70
2015,06,07,12,44,18.70
2015,06,07,12,45,18.70
2015,06,07,12,46,18.70
2015,06,07,12,47,18.70
2015,06,07,12,48,18.70
2015,06,07,12,49,18.70
2015,06,07,12,50,18.70
2015,06,07,12,51,18.70
2015,06,07,12,52,18.70
2015,06,07,12,53,18.80
2015,06,07,12,54,18.80
2015,06,07,12,55,18.90
2015,06,07,12,56,19.10
2015,06,07,12,57,19.10
2015,06,07,12,58,19.20
2015,06,07,12,59,19.30
2015,06,07,13,00,19.40
2015,06,07,13,01,19.50
2015,06,07,13,02,19.60
2015,06,07,13,03,19.60
2015,06,07,13,04,19.70
2015,06,07,13,05,19.70
2015,06,07,13,06,19.80
2015,06,07,13,07,19.80
2015,06,07,13,08,19.90
2015,06,07,13,09,19.90
2015,06,07,13,10,20.00
2015,06,07,13,11,20.00
2015,06,07,13,12,20.10
2015,06,07,13,13,20.10
2015,06,07,13,14,20.20
2015,06,07,13,15,20.20
2015,06,07,13,16,20.20
2015,06,07,13,17,20.30
2015,06,07,13,18,20.30
2015,06,07,13,19,20.30
2015,06,07,13,20,20.30
2015,06,07,13,21,20.40
2015,06,07,13,22,20.60
2015,06,07,13,23,20.70
2015,06,07,13,24,20.80
2015,06,07,13,25,21.00
2015,06,07,13,26,21.10
2015,06,07,13,27,21.20
2015,06,07,13,28,21.20
2015,06,07,13,29,21.20
2015,06,07,13,30,21.20
2015,06,07,13,31,21.20
2015,06,07,13,32,21.30
2015,06,07,13,33,21.30
2015,06,07,13,34,21.30
2015,06,07,13,35,21.40
2015,06,07,13,36,21.40
2015,06,07,13,37,21.40
2015,06,07,13,38,21.30
2015,06,07,13,39,21.30
2015,06,07,13,40,21.30
2015,06,07,13,41,21.40
2015,06,07,13,42,21.40
2015,06,07,13,43,21.50
2015,06,07,13,44,21.50
2015,06,07,13,45,21.60
2015,06,07,13,46,21.70
2015,06,07,13,47,21.70
2015,06,07,13,48,21.80
2015,06,07,13,49,21.90
2015,06,07,13,50,22.00
2015,06,07,13,51,22.10
2015,06,07,13,52,22.20
2015,06,07,13,53,22.30
2015,06,07,13,54,22.40
2015,06,07,13,55,22.50
2015,06,07,13,56,22.50
2015,06,07,13,57,22.40
2015,06,07,13,58,22.40
2015,06,07,13,59,22.40
2015,06,07,14,00,22.40
2015,06,07,14,01,22.40
2015,06,07,14,02,22.30
2015,06,07,14,03,22.30
2015,06,07,14,04,22.30
2015,06,07,14,05,22.30
2015,06,07,14,06,22.40
2015,06,07,14,07,22.40
2015,06,07,14,08,22.50
2015,06,07,14,09,22.60
2015,06,07,14,10,22.70
2015,06,07,14,11,22.70
2015,06,07,14,12,22.70
2015,06,07,14,13,22.80
2015,06,07,14,14,22.80
2015,06,07,14,15,22.90
2015,06,07,14,16,23.00
2015,06,07,14,17,23.10
2015,06,07,14,18,23.20
2015,06,07,14,19,23.40
2015,06,07,14,20,23.50
2015,06,07,14,21,23.60
2015,06,07,14,22,23.70
2015,06,07,14,23,23.70
2015,06,07,14,24,23.80
2015,06,07,14,25,23.90
2015,06,07,14,26,24.10
2015,06,07,14,27,24.20
2015,06,07,14,28,24.30
2015,06,07,14,29,24.40
2015,06,07,14,30,24.40
2015,06,07,14,31,24.50
2015,06,07,14,32,24.60
2015,06,07,14,33,24.70
2015,06,07,14,34,24.80
2015,06,07,14,35,25.00
2015,06,07,14,36,25.10
2015,06,07,14,37,25.20
2015,06,07,14,38,25.30
2015,06,07,14,39,25.30
2015,06,07,14,40,25.30
2015,06,07,14,41,25.30
2015,06,07,14,42,25.40
2015,06,07,14,43,25.50
2015,06,07,14,44,25.50
2015,06,07,14,45,25.40
2015,06,07,14,46,25.40
2015,06,07,14,47,25.40
2015,06,07,14,48,25.40
2015,06,07,14,49,25.40
2015,06,07,14,50,25.40
2015,06,07,14,51,25.40
2015,06,07,14,52,25.40
2015,06,07,14,53,25.50
2015,06,07,14,54,25.60
2015,06,07,14,55,25.70
2015,06,07,14,56,25.80
2015,06,07,14,57,25.80
2015,06,07,14,58,25.80
2015,06,07,14,59,25.90
2015,06,07,15,00,25.90
2015,06,07,15,01,25.90
2015,06,07,15,02,25.90
2015,06,07,15,03,25.80
2015,06,07,15,04,25.70
2015,06,07,15,05,25.70
2015,06,07,15,06,25.70
2015,06,07,15,07,25.70
2015,06,07,15,08,25.70
2015,06,07,15,09,25.80
2015,06,07,15,10,25.80
2015,06,07,15,11,25.90
2015,06,07,15,12,26.00
2015,06,07,15,13,26.20
2015,06,07,15,14,26.30
2015,06,07,15,15,26.40
2015,06,07,15,16,26.60
2015,06,07,15,17,26.60
2015,06,07,15,18,26.70
2015,06,07,15,19,26.70
2015,06,07,15,20,26.70
2015,06,07,15,21,26.60
2015,06,07,15,22,26.60
2015,06,07,15,23,26.70
2015,06,07,15,24,26.70
2015,06,07,15,25,26.80
2015,06,07,15,26,26.90
2015,06,07,15,27,27.00
2015,06,07,15,28,27.10
2015,06,07,15,29,27.20
2015,06,07,15,30,27.20
2015,06,07,15,31,27.20
2015,06,07,15,32,27.20
2015,06,07,15,33,27.10
2015,06,07,15,34,27.10
2015,06,07,15,35,27.00
2015,06,07,15,36,26.80
2015,06,07,15,37,26.70
2015,06,07,15,38,26.50
2015,06,07,15,39,26.20
2015,06,07,15,40,25.90
2015,06,07,15,41,25.80
2015,06,07,15,42,25.80
2015,06,07,15,43,25.80
2015,06,07,15,44,25.90
2015,06,07,15,45,25.90
2015,06,07,15,46,26.00
2015,06,07,15,47,26.10
2015,06,07,15,48,26.20
2015,06,07,15,49,26.30
2015,06,07,15,50,26.30
2015,06,07,15,51,26.30
2015,06,07,15,52,26.40
2015,06,07,15,53,26.40
2015,06,07,15,54,26.40
2015,06,07,15,55,26.40
2015,06,07,15,56,26.50
2015,06,07,15,57,26.50
2015,06,07,15,58,26.40
2015,06,07,15,59,26.50
2015,06,07,16,00,26.50
2015,06,07,16,01,26.60
2015,06,07,16,02,26.70
2015,06,07,16,03,26.80
2015,06,07,16,04,26.90
2015,06,07,16,05,27.00
2015,06,07,16,06,27.10
2015,06,07,16,07,27.20
2015,06,07,16,08,27.20
2015,06,07,16,09,27.20
2015,06,07,16,10,27.10
2015,06,07,16,11,27.00
2015,06,07,16,12,27.00
2015,06,07,16,13,26.90
2015,06,07,16,14,26.80
2015,06,07,16,15,26.60
2015,06,07,16,16,26.50
2015,06,07,16,17,26.40
2015,06,07,16,18,26.30
2015,06,07,16,19,26.20
2015,06,07,16,20,26.10
2015,06,07,16,21,26.00
2015,06,07,16,22,25.90
2015,06,07,16,23,26.00
2015,06,07,16,24,25.90
2015,06,07,16,25,25.90
2015,06,07,16,26,25.90
2015,06,07,16,27,25.90
2015,06,07,16,28,26.00
2015,06,07,16,29,26.00
2015,06,07,16,30,26.10
2015,06,07,16,31,26.10
2015,06,07,16,32,26.20
2015,06,07,16,33,26.20
2015,06,07,16,34,26.30
2015,06,07,16,35,26.30
2015,06,07,16,36,26.30
2015,06,07,16,37,26.30
2015,06,07,16,38,26.30
2015,06,07,16,39,26.20
2015,06,07,16,40,26.10
2015,06,07,16,41,26.00
2015,06,07,16,42,26.00
2015,06,07,16,43,25.90
2015,06,07,16,44,25.80
2015,06,07,16,45,25.80
2015,06,07,16,46,25.80
2015,06,07,16,47,25.80
2015,06,07,16,48,25.80
2015,06,07,16,49,25.80
2015,06,07,16,50,25.70
2015,06,07,16,51,25.70
2015,06,07,16,52,25.70
2015,06,07,16,53,25.60
2015,06,07,16,54,25.60
2015,06,07,16,55,25.50
2015,06,07,16,56,25.50
2015,06,07,16,57,25.40
2015,06,07,16,58,25.40
2015,06,07,16,59,25.50
2015,06,07,17,00,25.60
2015,06,07,17,01,25.70
2015,06,07,17,02,25.70
2015,06,07,17,03,25.60
2015,06,07,17,04,25.60
2015,06,07,17,05,25.60
2015,06,07,17,06,25.60
2015,06,07,17,07,25.60
2015,06,07,17,08,25.60
2015,06,07,17,09,25.60
2015,06,07,17,10,25.60
2015,06,07,17,11,25.50
2015,06,07,17,12,25.50
2015,06,07,17,13,25.40
2015,06,07,17,14,25.40
2015,06,07,17,15,25.40
2015,06,07,17,16,25.40
2015,06,07,17,17,25.40
2015,06,07,17,18,25.40
2015,06,07,17,19,25.50
2015,06,07,17,20,25.50
2015,06,07,17,21,25.50
2015,06,07,17,22,25.30
2015,06,07,17,23,25.20
2015,06,07,17,24,25.10
2015,06,07,17,25,25.10
2015,06,07,17,26,25.10
2015,06,07,17,27,25.10
2015,06,07,17,28,25.20
2015,06,07,17,29,25.20
2015,06,07,17,30,25.20
2015,06,07,17,31,25.20
2015,06,07,17,32,25.20
2015,06,07,17,33,25.20
2015,06,07,17,34,25.20
2015,06,07,17,35,25.10
2015,06,07,17,36,25.00
2015,06,07,17,37,24.90
2015,06,07,17,38,24.90
2015,06,07,17,39,24.80
2015,06,07,17,40,24.70
2015,06,07,17,41,24.60
2015,06,07,17,42,24.60
2015,06,07,17,43,24.60
2015,06,07,17,44,24.60
2015,06,07,17,45,24.50
2015,06,07,17,46,24.50
2015,06,07,17,47,24.50
2015,06,07,17,48,24.50
2015,06,07,17,49,24.50
2015,06,07,17,50,24.50
2015,06,07,17,51,24.50
2015,06,07,17,52,24.40
2015,06,07,17,53,24.40
2015,06,07,17,54,24.30
2015,06,07,17,55,24.20
2015,06,07,17,56,24.10
2015,06,07,17,57,24.10
2015,06,07,17,58,24.10
2015,06,07,17,59,24.00
2015,06,07,18,00,24.00
2015,06,07,18,01,23.90
2015,06,07,18,02,23.90
2015,06,07,18,03,23.80
2015,06,07,18,04,23.80
2015,06,07,18,05,23.80
2015,06,07,18,06,23.90
2015,06,07,18,07,23.90
2015,06,07,18,08,23.90
2015,06,07,18,09,23.90
2015,06,07,18,10,23.80
2015,06,07,18,11,23.70
2015,06,07,18,12,23.70
2015,06,07,18,13,23.60
2015,06,07,18,14,23.60